CAPE
0 0 0 0 7 109 35 72 197 324 106 70 0 0 0 70 85 396 45 0 0 453 620 671 399 125 112 207 174 231 205 166 104 108 121 123 117 99 109 79 92 187 214 240 274 273 261 213 146
0 0 0 0 16 50 18 57 180 451 254 1 0 0 19 135 293 306 2 3 50 528 592 595 410 161 105 164 236 162 169 103 90 134 178 184 159 183 130 147 218 231 231 255 248 209 167 112 66
0 0 0 0 6 9 18 63 230 409 316 136 136 3 71 155 270 1 0 0 416 448 634 775 480 212 127 113 193 141 89 111 179 187 222 256 255 210 238 305 352 337 291 241 157 77 29 0 0
0 0 0 0 20 0 15 228 470 617 397 270 325 267 289 175 124 0 0 126 466 303 748 552 549 203 119 104 180 132 130 233 275 281 275 303 341 326 395 413 378 322 207 137 86 46 31 33 0
0 0 0 0 0 0 0 65 742 649 233 200 152 259 132 568 265 2 19 180 204 249 745 589 541 255 174 145 142 75 169 278 344 366 361 434 426 398 444 416 347 238 166 112 79 42 0 0 0
0 0 0 1 0 0 0 21 703 504 70 52 228 155 86 628 296 56 63 130 189 293 785 694 599 363 160 117 135 179 262 339 333 315 364 463 387 371 367 354 287 224 164 132 103 76 59 60 76
0 0 0 0 0 0 3 192 683 427 69 81 326 157 593 562 430 308 52 131 247 325 626 772 380 484 385 182 199 224 276 429 397 390 428 385 342 327 300 263 208 180 149 136 137 180 256 280 280
0 0 0 0 0 0 45 263 609 333 96 32 203 84 233 847 787 401 60 98 272 328 509 645 471 213 194 193 267 349 445 505 496 447 450 352 312 300 190 124 59 134 151 171 208 264 315 358 350
0 0 0 0 0 0 0 324 402 153 77 51 102 46 645 1270 951 388 38 48 151 233 396 505 372 193 98 137 332 383 450 544 529 414 397 198 182 159 354 224 208 54 128 236 342 500 642 729 702
0 0 3 0 0 0 0 47 390 191 234 90 119 377 1016 1430 807 221 41 0 75 159 298 411 401 317 180 177 486 293 203 155 197 174 353 268 186 181 164 199 52 120 228 324 523 693 852 1021 979
0 0 5 0 0 0 0 80 318 318 294 229 146 469 1097 1233 602 151 1 0 3 73 222 373 673 729 265 157 383 332 327 320 412 460 502 328 213 194 74 132 257 308 724 937 1228 1278 1094 1159 1302
0 0 0 0 0 0 0 0 77 242 179 143 140 464 725 698 433 116 14 0 0 55 170 353 709 1057 667 265 342 396 291 424 458 579 793 612 612 386 303 140 307 816 948 1225 1190 949 1213 1575 1541
0 0 0 0 0 0 0 0 0 0 1 70 100 420 477 361 248 62 33 6 10 77 188 336 636 1050 1009 836 486 372 428 378 415 578 684 505 454 353 335 205 266 477 997 1060 947 910 996 1018 811
0 0 0 0 0 0 0 0 0 0 0 48 157 326 374 173 200 156 62 25 83 208 255 384 653 1038 1015 952 701 496 567 358 492 510 423 666 570 502 428 511 387 455 816 938 1153 1117 1248 1153 1085
0 0 0 0 0 0 0 0 0 0 0 16 132 227 288 394 212 399 318 168 168 260 357 606 743 905 1035 966 932 702 446 384 620 674 843 846 913 896 848 878 1128 1354 1283 1322 1269 1297 1481 1557 1574
0 0 0 0 0 0 0 0 0 0 0 0 20 198 245 363 467 416 569 631 415 329 507 827 767 843 1151 837 860 513 449 531 725 842 912 977 902 1083 1208 1212 1416 1710 1686 1551 1662 1710 1677 1424 1629
0 0 0 0 0 0 0 0 0 0 0 0 0 16 359 323 555 699 830 896 1017 864 619 922 1039 965 1194 1064 807 624 600 685 781 861 1065 1299 1274 1192 1597 1634 1759 2043 1776 1744 1600 1567 1424 1200 1079
0 0 0 0 0 0 0 0 0 0 0 0 0 0 2 301 309 633 951 1004 1209 1382 1252 1160 1207 1233 1409 1201 1006 599 622 602 811 1221 1576 2105 2155 1942 1961 1915 2107 1696 1500 1436 1420 1396 1454 1084 861
0 0 0 0 0 0 0 0 0 0 0 0 0 0 0 4 147 332 822 1158 1231 1544 1624 1625 1444 1436 1551 1347 932 568 625 1194 1651 1929 2236 2507 2586 2363 2313 2049 1866 1455 1579 1750 1740 1602 1122 859 651
0 0 0 0 0 0 0 0 0 0 0 0 0 0 0 0 83 172 472 1221 1351 1614 1868 1867 1825 1831 1818 1402 1031 743 903 1336 1783 1965 2302 2441 2295 2077 2037 1864 1728 1657 1390 1286 892 732 688 397 87
0 0 0 0 0 0 0 0 0 0 0 0 0 0 0 0 0 3 540 1414 1898 1630 1979 2042 2122 2026 2020 1544 1241 1275 1295 1675 1466 1625 1455 1502 1636 1272 1431 1382 1160 764 412 240 46 10 11 0 0
0 0 0 0 0 0 0 0 0 0 0 0 0 0 0 0 0 0 147 1619 2315 2416 2097 2080 2270 2238 2155 1771 1419 1699 1434 1261 1623 1815 1311 935 864 531 394 131 63 3 0 0 0 0 0 0 0
0 0 0 0 0 0 0 0 0 0 0 0 0 0 0 0 1 52 139 1054 2552 2723 2766 2417 2338 2369 2205 2005 1849 1843 1452 1784 2030 1415 846 388 107 8 0 0 0 0 0 0 0 0 0 0 0
0 0 0 0 0 0 0 0 0 0 0 0 0 0 0 0 128 315 445 1043 2181 2608 2763 2654 2399 2407 2344 2268 2203 2154 2061 2301 1341 1039 532 164 0 0 0 0 0 0 0 0 0 0 0 0 0
0 0 0 0 0 0 0 0 0 0 0 0 0 0 0 0 144 588 991 1305 2106 2383 2516 2586 2555 2637 2633 2574 2401 2357 2542 1879 1272 835 348 0 0 0 0 0 0 0 0 0 0 0 0 0 0
0 0 0 0 0 0 0 0 0 0 0 0 0 3 116 164 15 36 645 1294 1817 2342 2611 2607 2680 2441 2429 2448 2439 2391 1821 1110 768 284 0 0 0 0 0 0 0 0 0 0 0 0 0 0 0
0 0 0 0 0 0 0 0 0 2 0 0 0 0 0 97 648 326 143 1144 1963 2292 2486 2789 2118 2103 2359 2418 2113 1785 1199 956 555 94 0 0 0 0 0 0 0 0 0 0 0 0 0 0 0
0 0 0 0 0 0 0 0 0 12 0 0 0 0 0 0 66 874 241 774 2049 2112 2003 2530 1863 1685 1564 1723 1538 1614 1523 828 93 0 0 0 0 0 0 0 0 0 0 0 0 0 0 0 0
0 0 0 0 0 0 0 0 8 0 0 0 0 0 0 0 0 208 1077 1326 1290 1013 1342 2186 2114 1665 1494 1412 1204 970 590 94 0 0 0 0 0 0 0 0 0 0 0 0 0 0 0 0 0
0 0 0 0 0 0 0 0 0 0 0 0 0 0 0 0 0 0 269 564 501 458 907 1386 1212 1863 1371 1507 1030 658 150 1 0 0 0 0 0 0 0 0 0 0 0 0 0 0 0 0 0
CIN
0 0 0 0 -45 -16 -7 -9 -26 -35 -28 -62 0 0 0 -73 -49 -17 -311 0 0 -166 -179 -167 -221 -306 -280 -223 -210 -188 -202 -231 -266 -268 -237 -216 -210 -203 -160 -163 -118 -43 -31 -23 -11 -13 -13 -22 -33
0 0 0 0 -14 -7 -9 -12 -1 -21 -63 -15 0 0 -44 -57 -131 -211 -61 -198 -261 -166 -172 -170 -220 -256 -292 -234 -193 -214 -225 -280 -315 -263 -224 -208 -206 -177 -187 -141 -77 -56 -45 -29 -21 -26 -33 -47 -70
0 0 0 0 -4 -11 -9 -3 -3 -40 -69 -62 -66 -22 -76 -116 -218 -49 0 0 -191 -184 -136 -140 -199 -258 -274 -277 -210 -236 -289 -291 -260 -252 -227 -199 -182 -185 -139 -90 -74 -55 -48 -51 -62 -82 -111 0 0
0 0 0 0 -3 0 -13 -3 -22 -24 -58 -62 -44 -44 -130 -215 -237 -5 0 -260 -185 -175 -103 -204 -184 -266 -299 -296 -241 -279 -288 -237 -220 -216 -208 -181 -150 -130 -107 -90 -80 -89 -122 -132 -146 -159 -152 -141 0
0 0 0 0 0 0 0 -37 -29 -20 -46 -50 -67 -37 -99 -193 -258 -84 -311 -227 -177 -167 -104 -188 -191 -250 -275 -283 -298 -337 -281 -229 -201 -190 -187 -140 -134 -134 -104 -95 -112 -144 -165 -165 -188 -201 0 0 0
0 0 0 -1 0 0 0 -33 -19 -18 -50 -89 -46 -55 -133 -178 -217 -309 -277 -214 -165 -155 -109 -175 -191 -232 -288 -313 -307 -280 -242 -205 -211 -211 -183 -137 -148 -153 -141 -127 -148 -157 -177 -184 -212 -239 -243 -228 -203
0 0 0 0 0 0 -32 -67 -29 -14 -48 -69 -56 -42 -72 -132 -195 -220 -258 -193 -160 -151 -107 -151 -214 -203 -227 -303 -299 -267 -244 -178 -189 -194 -166 -159 -173 -165 -171 -181 -195 -202 -211 -210 -216 -204 -177 -163 -162
0 0 0 0 0 0 -64 -68 -32 -30 -38 -168 -73 -47 -54 -129 -212 -227 -237 -214 -178 -175 -134 -126 -162 -234 -255 -295 -290 -246 -202 -179 -173 -181 -168 -186 -196 -189 -220 -253 -290 -234 -228 -212 -192 -173 -157 -150 -154
0 0 0 0 0 0 0 -42 -65 -96 -67 -107 -98 -119 -115 -184 -226 -222 -232 -204 -176 -174 -141 -115 -138 -176 -214 -228 -264 -264 -220 -189 -184 -198 -196 -254 -150 -164 -126 -156 -212 -304 -249 -213 -169 -125 -109 -95 -85
0 0 -2 0 0 0 0 -42 -43 -63 -50 -72 -111 -178 -172 -203 -210 -195 -211 0 -175 -169 -145 -121 -131 -160 -180 -209 -196 -219 -223 -231 -215 -203 -179 -170 -130 -132 -128 -160 -285 -265 -228 -198 -139 -113 -93 -78 -3
0 0 -6 0 0 0 0 -43 -46 -37 -16 -17 -31 -112 -148 -170 -179 -166 -9 0 -26 -167 -156 -132 -153 -160 -170 -196 -182 -168 -160 -154 -145 -145 -148 -152 -139 -152 -189 -138 -109 -116 -91 -20 -18 -7 -6 -1 0
0 0 0 0 0 0 0 0 -40 -34 -7 -42 -59 -83 -129 -140 -126 -131 -144 0 0 -189 -180 -156 -158 -179 -177 -182 -190 -159 -157 -138 -128 -138 -131 -128 -119 -128 -138 -134 -89 -42 -13 -6 -6 -6 -1 -1 -1
0 0 0 0 0 0 0 0 0 0 -25 -70 -64 -90 -114 -109 -101 -135 -141 -59 -82 -164 -167 -169 -171 -203 -205 -195 -178 -180 -177 -178 -150 -161 -156 -143 -145 -159 -152 -161 -144 -90 -22 -14 -14 -16 -7 -7 -14
0 0 0 0 0 0 0 0 0 0 0 -81 -72 -87 -96 -95 -103 -129 -163 -142 -201 -151 -157 -160 -195 -216 -216 -230 -202 -197 -192 -183 -183 -175 -193 -169 -159 -163 -154 -136 -144 -120 -59 -27 -14 -10 -5 -6 -4
0 0 0 0 0 0 0 0 0 0 0 -37 -41 -56 -65 -80 -99 -96 -130 -136 -165 -180 -144 -180 -195 -218 -250 -245 -218 -210 -195 -185 -173 -163 -172 -172 -164 -145 -132 -95 -68 -24 -16 -20 -12 -16 -3 -2 -2
0 0 0 0 0 0 0 0 0 0 0 0 -34 -38 -52 -76 -73 -85 -95 -126 -160 -184 -190 -177 -179 -187 -249 -242 -222 -212 -195 -191 -152 -149 -156 -166 -164 -137 -96 -67 -34 -2 -17 -13 -2 -1 -1 -1 -1
0 0 0 0 0 0 0 0 0 0 0 0 0 -6 -49 -45 -75 -82 -102 -121 -151 -189 -213 -214 -189 -160 -209 -238 -209 -220 -217 -204 -164 -146 -133 -119 -114 -103 -63 -26 -5 -16 -19 -11 -8 -2 -7 -8 -20
0 0 0 0 0 0 0 0 0 0 0 0 0 0 -9 -44 -66 -73 -90 -96 -132 -177 -196 -228 -216 -203 -192 -212 -225 -199 -198 -196 -163 -120 -79 -46 -21 -40 -38 -16 -19 -35 -30 -20 -13 -14 -1 -19 -37
0 0 0 0 0 0 0 0 0 0 0 0 0 0 0 -74 -41 -51 -48 -105 -136 -182 -228 -231 -226 -228 -211 -210 -212 -195 -195 -192 -115 -89 -56 -24 -15 -15 -21 -11 -15 -30 -4 -1 0 0 -2 -5 -38
0 0 0 0 0 0 0 0 0 0 0 0 0 0 0 0 -51 -41 -68 -112 -148 -188 -249 -258 -224 -242 -259 -206 -191 -162 -182 -156 -111 -87 -54 -27 -33 -39 -18 -11 -11 -10 -4 -11 -25 -32 -10 -62 -201
0 0 0 0 0 0 0 0 0 0 0 0 0 0 0 0 0 -10 -49 -77 -148 -222 -241 -267 -267 -256 -280 -216 -229 -247 -201 -167 -169 -140 -130 -95 -57 -74 -43 -29 -32 -82 -135 -187 -208 -153 -132 0 0
0 0 0 0 0 0 0 0 0 0 0 0 0 0 0 0 0 0 -43 -71 -150 -172 -255 -293 -282 -279 -287 -275 -252 -234 -226 -170 -101 -84 -118 -160 -147 -216 -235 -334 -357 -75 0 0 0 0 0 0 0
0 0 0 0 0 0 0 0 0 0 0 0 0 0 0 0 -4 -54 -62 -63 -111 -180 -210 -289 -300 -299 -289 -289 -211 -222 -177 -75 -84 -125 -206 -297 -408 -124 0 0 0 0 0 0 0 0 0 0 0
0 0 0 0 0 0 0 0 0 0 0 0 0 0 0 0 -31 -60 -93 -116 -164 -205 -212 -256 -306 -288 -263 -258 -213 -191 -135 -80 -204 -209 -273 -363 0 0 0 0 0 0 0 0 0 0 0 0 0
0 0 0 0 0 0 0 0 0 0 0 0 0 0 0 0 -29 -55 -92 -117 -185 -225 -219 -240 -274 -256 -223 -216 -206 -175 -105 -155 -228 -273 -306 0 0 0 0 0 0 0 0 0 0 0 0 0 0
0 0 0 0 0 0 0 0 0 0 0 0 0 -47 -135 -147 -147 -87 -40 -68 -152 -234 -204 -213 -250 -280 -239 -209 -178 -145 -183 -257 -262 -400 0 0 0 0 0 0 0 0 0 0 0 0 0 0 0
0 0 0 0 0 0 0 0 0 -7 -11 0 0 0 0 -242 -206 -212 -170 -73 -102 -258 -221 -178 -315 -267 -191 -160 -180 -203 -264 -230 -285 -470 0 0 0 0 0 0 0 0 0 0 0 0 0 0 0
0 0 0 0 0 0 0 0 -3 -97 0 0 0 0 0 0 -217 -179 -188 -132 -68 -241 -230 -129 -243 -272 -299 -221 -215 -145 -129 -239 -426 0 0 0 0 0 0 0 0 0 0 0 0 0 0 0 0
0 0 0 0 0 0 0 0 -30 0 0 0 0 0 0 0 0 -289 -87 -133 -232 -302 -224 -82 -88 -176 -216 -193 -200 -194 -270 -515 0 0 0 0 0 0 0 0 0 0 0 0 0 0 0 0 0
0 0 0 0 0 0 0 0 0 0 0 0 0 0 0 0 0 0 -235 -198 -273 -321 -213 -113 -111 -29 -124 -100 -139 -184 -358 -22 0 0 0 0 0 0 0 0 0 0 0 0 0 0 0 0 0
Wind_Speed
18 17 15 16 18 19 12 9 9 9 8 10 8 11 13 11 13 13 18 16 18 19 20 20 20 19 20 20 21 21 21 21 22 23 23 24 24 24 24 25 25 25 26 26 26 26 25 25 25
19 18 17 17 16 9 9 8 9 9 10 11 11 12 14 15 14 10 15 19 21 19 19 17 19 18 19 19 19 19 19 20 21 22 22 22 22 23 23 24 24 25 25 25 25 25 24 24 24
19 19 18 18 15 10 9 10 9 10 12 14 14 15 16 16 14 13 9 22 21 20 18 16 18 17 17 17 17 17 18 19 19 20 20 21 21 22 22 23 23 24 24 24 24 24 23 23 22
20 16 20 21 14 12 15 13 12 9 12 14 15 16 15 15 11 8 15 20 21 20 19 18 18 16 15 15 15 15 16 17 18 19 19 20 20 20 21 21 21 22 22 22 23 23 22 22 22
19 17 22 19 12 15 16 15 13 9 12 14 17 16 15 12 13 17 16 17 19 17 18 18 16 15 14 14 14 15 15 16 17 18 18 18 18 19 19 19 20 20 20 21 21 21 20 20 19
14 17 20 19 11 17 16 13 12 9 12 16 16 16 14 12 15 20 22 20 21 20 19 17 14 13 13 14 14 14 15 15 16 17 17 17 17 18 18 18 18 18 18 19 18 18 17 15 14
23 19 21 20 17 15 14 11 6 7 13 16 16 12 14 10 14 18 20 20 20 18 16 15 14 13 13 13 13 13 14 15 15 15 16 17 17 17 17 16 16 16 16 16 16 15 14 13 12
21 20 13 17 14 15 14 7 8 5 14 14 14 14 11 9 15 20 22 19 17 17 16 15 13 13 12 11 13 14 15 16 16 16 15 16 15 15 15 14 14 14 14 13 12 12 12 11 10
16 19 6 14 16 15 12 3 4 9 10 11 13 14 11 13 20 21 21 20 19 18 16 15 14 13 14 13 13 15 16 15 15 14 13 14 13 13 12 12 12 11 11 11 10 10 10 8 6
2 12 4 14 16 18 17 8 6 8 11 11 11 13 10 16 21 21 21 21 20 18 18 17 18 16 16 14 14 16 14 14 13 12 11 11 11 11 11 11 9 9 8 8 7 7 7 7 10
6 25 9 10 22 20 18 10 4 20 20 17 12 11 11 11 17 21 21 21 20 17 16 16 17 17 18 16 14 14 12 12 11 11 11 10 10 10 10 9 9 9 8 8 8 8 7 12 11
22 17 23 19 21 22 20 14 15 14 24 13 8 15 15 13 12 17 20 18 15 14 14 16 16 15 16 13 12 12 12 12 11 12 12 12 11 10 10 9 9 9 8 11 7 8 10 6 6
24 30 25 16 27 26 24 24 25 27 6 9 5 13 15 13 11 12 12 12 10 12 12 15 15 15 14 13 10 11 13 13 12 11 12 13 11 10 9 8 8 9 9 8 8 9 9 7 7
16 31 32 29 28 28 28 26 24 18 3 5 5 12 13 11 11 12 10 11 13 13 10 13 14 14 12 11 10 11 11 11 11 11 11 12 11 9 8 8 8 8 7 7 7 7 11 11 12
15 13 23 35 34 33 30 32 29 25 9 7 2 6 10 12 14 13 11 10 12 11 7 9 13 11 10 8 8 8 8 8 8 9 9 9 9 7 7 6 6 7 8 7 7 8 9 8 10
12 16 9 10 27 31 25 35 23 16 17 15 10 2 10 13 15 13 10 8 7 6 7 6 7 6 8 5 5 4 4 5 5 6 5 5 6 5 5 4 4 5 7 5 8 10 11 12 14
11 17 9 18 12 25 12 23 31 16 19 19 15 9 5 12 14 14 14 8 8 6 5 6 6 5 5 4 1 1 3 4 5 5 5 4 3 2 2 2 4 8 4 8 11 12 14 16 15
18 14 15 17 13 15 14 13 30 16 20 19 16 11 8 11 19 12 13 11 9 8 7 7 6 5 4 2 1 1 3 4 7 7 8 8 5 2 2 4 8 8 9 10 12 15 16 18 20
22 22 23 23 21 27 28 28 24 23 22 17 21 14 12 22 16 10 11 12 10 10 10 9 9 7 6 5 4 4 4 6 7 10 12 12 10 8 7 8 10 10 11 14 16 16 19 21 22
22 24 25 26 24 24 27 28 27 21 20 21 17 15 14 14 16 12 12 12 13 13 12 11 10 9 9 6 6 7 5 6 8 9 11 11 11 11 11 12 12 12 14 16 17 16 15 16 20
23 26 28 27 28 27 29 33 28 25 21 20 20 21 15 15 16 16 15 14 13 16 16 13 12 10 10 8 7 6 6 10 10 11 13 13 12 13 13 13 14 14 16 16 18 20 18 18 17
28 25 25 27 27 29 20 38 29 20 18 17 16 15 14 14 15 16 17 15 14 16 18 16 13 12 11 10 9 9 8 9 10 10 12 11 11 12 13 14 15 15 16 16 17 18 19 19 21
27 23 26 29 32 35 30 32 32 26 23 23 17 17 18 17 21 19 17 16 15 16 18 17 16 14 13 12 12 10 10 9 8 8 8 12 12 12 13 14 14 14 15 16 17 18 20 19 20
29 31 33 33 32 35 33 32 41 31 23 24 20 17 20 22 23 24 21 21 17 16 17 18 16 16 14 13 12 12 11 9 8 7 8 9 12 12 12 12 13 13 14 15 16 17 19 20 20
23 30 36 35 31 35 28 31 30 30 29 25 27 27 26 25 24 23 17 17 20 17 15 18 17 15 14 14 13 12 12 11 11 8 8 8 9 10 11 11 11 12 14 15 16 16 18 19 20
30 29 33 43 41 41 30 29 26 20 21 24 25 27 29 31 32 31 29 25 22 21 18 16 18 17 14 13 13 12 11 11 8 10 9 9 8 9 7 8 10 11 12 13 15 16 17 18 19
26 28 32 38 40 48 44 43 34 25 21 25 28 31 34 36 37 38 37 31 28 23 21 18 17 18 16 15 12 12 11 10 9 7 7 7 7 7 6 7 10 11 12 13 14 16 17 19 20
29 31 33 29 43 49 42 39 34 22 24 26 29 32 34 36 36 37 36 34 30 24 22 20 18 17 16 14 13 13 11 10 9 7 7 7 7 4 5 8 8 11 13 15 15 17 18 20 21
32 28 30 32 34 46 52 45 24 23 29 34 37 39 41 40 39 37 33 27 26 24 25 24 21 19 18 17 16 14 13 10 8 7 6 7 5 5 6 7 9 12 13 15 17 19 20 21 22
23 26 31 35 39 39 42 48 23 23 34 40 45 46 44 42 40 39 36 35 33 29 27 25 22 18 15 13 14 12 11 9 7 6 5 4 5 5 6 10 11 11 14 15 17 18 20 22 24
Wind_Direction
287 260 229 213 211 190 38 345 266 277 292 301 333 285 292 286 285 294 92 87 98 100 100 99 95 91 90 88 88 87 85 81 82 83 82 78 75 69 68 67 67 66 65 64 65 65 63 60 59
284 276 243 241 240 348 17 341 325 302 344 346 22 297 331 317 285 315 86 106 108 100 101 94 95 91 90 89 86 82 82 82 84 83 80 78 74 72 70 68 68 67 67 66 64 64 63 61 58
283 266 257 262 280 324 354 299 319 331 15 42 10 295 301 306 310 71 47 108 107 104 100 93 97 92 89 87 81 80 80 82 82 82 80 78 76 74 73 72 70 67 66 65 63 62 60 59 59
283 300 256 258 297 308 288 297 301 347 359 10 355 14 341 330 21 20 89 105 108 105 101 101 98 91 86 81 79 78 78 79 80 81 81 80 77 76 75 73 71 68 66 63 61 61 62 60 57
286 296 261 275 299 299 294 293 298 329 336 329 344 355 335 338 33 85 96 103 108 102 100 103 99 91 83 80 80 80 80 81 83 84 85 82 79 77 73 70 71 71 67 64 61 62 68 67 73
303 294 269 270 300 298 299 299 293 315 329 320 338 352 11 35 69 98 111 111 114 109 106 101 96 90 86 84 83 81 79 81 84 86 84 84 85 87 87 88 84 78 71 71 71 75 86 96 109
269 283 275 273 292 300 307 312 331 340 319 315 354 9 22 48 78 101 112 114 115 112 104 101 100 93 88 87 85 84 84 87 85 87 90 95 96 100 97 93 95 90 79 83 77 88 93 92 99
277 276 300 286 297 299 316 340 325 22 323 13 36 337 3 48 85 111 120 118 115 116 110 108 103 102 95 89 90 96 98 99 98 96 95 100 102 103 103 102 102 97 85 79 91 87 89 92 88
292 273 317 297 287 311 331 52 23 326 357 45 69 14 9 76 105 116 123 124 125 125 121 117 114 107 108 98 99 104 109 107 103 100 96 99 106 96 95 80 70 96 94 86 99 81 72 79 101
239 165 311 298 294 294 314 315 104 110 123 114 56 52 57 96 120 123 128 134 134 132 131 127 127 121 120 110 107 118 110 113 108 102 91 103 86 84 95 56 91 96 98 100 102 84 71 74 48
176 188 319 316 273 285 299 313 339 166 182 172 136 97 97 96 119 135 136 133 133 127 127 132 132 128 132 125 116 115 109 107 105 99 98 97 85 86 98 97 94 85 82 97 79 64 76 35 39
188 180 273 281 277 273 280 306 284 166 205 326 88 124 122 122 116 129 136 132 124 125 125 130 133 131 134 119 118 110 117 114 108 119 121 120 115 102 115 91 65 60 80 40 62 57 37 54 50
191 202 202 184 258 263 275 259 258 244 219 346 45 126 134 130 124 123 123 118 110 124 124 131 130 134 131 127 113 119 128 127 114 112 129 136 126 116 95 74 80 42 52 65 51 38 32 35 26
247 206 216 210 215 226 237 248 261 280 18 7 84 131 136 138 138 131 127 132 138 133 129 132 137 135 131 130 125 120 120 116 120 115 122 132 129 108 110 86 65 58 52 52 47 44 18 13 10
295 287 197 215 220 227 243 237 248 264 306 313 33 134 147 154 155 156 145 143 144 142 131 135 138 135 135 129 129 120 110 114 104 113 116 124 123 113 112 91 68 44 32 30 21 15 12 12 9
301 295 214 209 205 255 269 232 271 283 282 289 301 255 163 165 172 168 163 166 159 156 159 152 139 141 140 126 119 106 75 85 79 84 91 111 120 113 93 91 66 42 21 28 13 9 5 0 359
306 295 286 280 283 274 271 203 261 289 284 282 290 288 197 179 180 181 179 190 190 195 197 184 175 163 154 150 107 37 0 360 8 10 24 20 47 75 86 58 35 11 22 8 1 358 356 354 354
297 302 298 288 298 285 265 241 272 287 286 285 281 272 216 201 196 198 192 190 211 224 212 210 209 205 185 192 224 280 321 330 337 339 342 346 355 357 2 9 1 4 3 3 359 353 352 348 346
293 294 293 293 294 286 281 280 279 280 286 282 283 272 241 208 208 224 212 203 213 237 231 215 214 214 215 218 236 263 276 314 327 332 332 338 348 360 1 356 356 359 358 353 354 351 347 345 345
296 292 292 294 295 294 288 284 281 277 278 283 272 263 254 249 229 235 230 226 216 235 240 231 228 224 210 231 255 285 283 304 320 334 338 339 344 345 347 346 352 355 355 350 348 354 358 358 355
296 292 291 292 296 297 293 288 285 282 273 278 284 285 267 251 237 234 240 244 240 244 247 239 240 233 221 232 252 277 289 302 307 318 325 334 342 344 347 347 350 352 350 354 347 350 356 357 3
293 298 296 294 295 294 304 288 294 297 282 277 270 282 280 270 261 246 249 234 235 250 258 256 250 242 242 227 232 236 250 281 296 308 318 329 339 346 346 346 348 353 356 354 357 353 353 352 350
295 307 298 294 291 291 291 292 294 296 288 291 275 279 293 293 289 278 246 228 244 256 260 262 258 254 252 241 246 249 263 283 297 305 313 318 324 332 338 343 348 357 359 358 357 354 350 356 352
300 298 295 292 291 287 290 289 283 290 294 298 293 286 293 296 295 293 277 259 256 257 261 264 258 258 251 243 243 249 251 261 277 289 299 312 316 323 331 344 349 357 3 2 360 357 353 351 354
308 300 293 290 287 289 299 291 296 294 296 300 296 295 297 298 294 297 293 266 262 258 257 264 258 252 245 241 241 241 249 256 266 273 289 302 310 317 322 334 346 355 353 356 354 357 354 352 352
305 303 293 286 287 288 296 293 306 320 311 303 307 304 302 300 296 290 284 279 275 270 263 258 258 254 240 236 239 241 247 258 262 270 282 294 299 310 321 333 343 349 355 0 354 352 350 351 353
310 302 304 293 290 285 286 287 294 299 307 310 309 307 304 302 297 288 283 282 277 274 271 265 259 256 248 245 241 241 242 247 260 260 265 282 295 304 311 330 333 338 343 353 347 346 346 345 346
312 310 299 294 289 283 287 286 292 306 309 314 313 311 309 308 304 297 289 284 280 276 276 273 267 258 249 244 249 250 244 245 257 257 255 275 289 297 303 312 328 327 329 335 338 336 338 340 341
307 302 301 298 292 288 284 285 302 307 312 307 306 306 305 306 306 302 300 298 291 283 280 276 271 262 256 255 255 251 251 255 255 254 259 276 283 283 299 310 319 320 324 323 323 328 332 336 341
316 312 309 295 290 290 289 282 299 308 314 310 304 301 301 302 303 303 298 294 290 287 283 277 272 265 260 256 254 245 244 245 236 236 244 256 272 292 299 301 312 315 313 316 322 331 331 332 332